Weather History for Bangor, ME

Change the Weather History Date:

Monday, May 21, 2012

  Actual Average Record
Temperature  
Mean Temperature 67 °F 55 °F  
Max Temperature 77 °F 67 °F 92 °F (1992)
Min Temperature 57 °F 44 °F 32 °F (1939)
Degree Days  
Heating Degree Days 0 10  
Month to date heating degree days 226 273  
Since 1 July heating degree days 6477 7671  
Cooling Degree Days 2 0  
Month to date cooling degree days 3 0  
Year to date cooling degree days 5 0  
Growing Degree Days 16 (Base 50)    
Moisture  
Dew Point 47 °F    
Average Humidity 60    
Maximum Humidity 86    
Minimum Humidity 33    
Precipitation  
Precipitation 0.00 in 0.12 in 1.11 in (1973)
Month to date precipitation 3.67 2.40  
Year to date precipitation 12.56 14.81  
Snow  
Snow 0.00 in 0.00 in 0.00 in (2002)
Month to date snowfall 0.0 0.1  
Since 1 July snowfall 49.1 66.2  
Snow Depth 0.00 in    
Sea Level Pressure  
Sea Level Pressure 30.24 in    
Wind  
Wind Speed 7 mph (South)    
Max Wind Speed 16 mph    
Max Gust Speed 24 mph    
Visibility 10 miles    
Events      
T = Trace of Precipitation, MM = Missing Value Source: NWS Daily Summary

Daily Weather History Graph

Daily Weather History Graph

Search for Another Location

Airport:

Trip Planner

Search our weather history database for the weather conditions in past years. The results will help you decide how hot, cold, wet, or windy it might be!

Date:

Astronomy

May. 21, 2012 Rise Set
Actual Time 5:00 AM EDT 8:04 PM EDT
Civil Twilight 4:25 AM EDT 8:39 PM EDT
Nautical Twilight 3:40 AM EDT 9:24 PM EDT
Astronomical Twilight 2:47 AM EDT 10:18 PM EDT
Moon 5:20 AM EDT (5/21) 8:52 PM EDT (5/21)
Length of Visible Light 16h 13m
Length of Day
15h 03m
New Moon, 0% of the Moon is Illuminated
May 21
New Moon
May 28
First Quarter
Jun 4
Full
Jun 11
Last Quarter
Jun 19
New

Hourly Weather History & Observations

Time (EDT) Temp. Dew Point Humidity Pressure Visibility Wind Dir Wind Speed Gust Speed Precip Events Conditions
12:53 AM 57.9 °F 42.1 °F 56% 30.28 in 10.0 mi South 4.6 mph - N/A   Clear
1:53 AM 55.9 °F 42.1 °F 60% 30.28 in 10.0 mi South 5.8 mph - N/A   Clear
2:53 AM 55.0 °F 42.1 °F 62% 30.28 in 10.0 mi South 3.5 mph - N/A   Clear
3:53 AM 54.0 °F 43.0 °F 66% 30.28 in 10.0 mi South 4.6 mph - N/A   Clear
4:53 AM 54.0 °F 44.1 °F 69% 30.29 in 10.0 mi South 4.6 mph - N/A   Partly Cloudy
5:53 AM 54.0 °F 45.0 °F 72% 30.29 in 10.0 mi South 4.6 mph - N/A   Mostly Cloudy
6:53 AM 57.9 °F 45.0 °F 62% 30.30 in 10.0 mi South 10.4 mph - N/A   Mostly Cloudy
7:53 AM 62.1 °F 46.9 °F 58% 30.30 in 10.0 mi South 6.9 mph - N/A   Scattered Clouds
8:53 AM 68.0 °F 48.0 °F 49% 30.30 in 10.0 mi South 5.8 mph - N/A   Scattered Clouds
9:53 AM 70.0 °F 50.0 °F 49% 30.31 in 10.0 mi South 8.1 mph - N/A   Scattered Clouds
10:53 AM 73.0 °F 50.0 °F 44% 30.29 in 10.0 mi South 9.2 mph - N/A   Scattered Clouds
11:53 AM 75.9 °F 48.9 °F 38% 30.28 in 10.0 mi South 15.0 mph - N/A   Partly Cloudy
12:53 PM 75.0 °F 46.0 °F 36% 30.26 in 10.0 mi SSE 16.1 mph 24.2 mph N/A   Partly Cloudy
1:53 PM 77.0 °F 46.9 °F 34% 30.25 in 10.0 mi South 13.8 mph 23.0 mph N/A   Partly Cloudy
2:53 PM 73.9 °F 46.0 °F 37% 30.24 in 10.0 mi South 12.7 mph - N/A   Partly Cloudy
3:53 PM 73.9 °F 46.0 °F 37% 30.22 in 10.0 mi South 12.7 mph - N/A   Mostly Cloudy
4:53 PM 73.0 °F 45.0 °F 37% 30.21 in 10.0 mi South 15.0 mph - N/A   Scattered Clouds
5:53 PM 71.1 °F 46.9 °F 42% 30.20 in 10.0 mi SSW 11.5 mph - N/A   Scattered Clouds
6:53 PM 68.0 °F 45.0 °F 43% 30.20 in 10.0 mi South 11.5 mph - N/A   Partly Cloudy
7:53 PM 64.9 °F 45.0 °F 48% 30.19 in 10.0 mi South 4.6 mph - N/A   Scattered Clouds
8:53 PM 62.1 °F 46.0 °F 56% 30.18 in 10.0 mi South 8.1 mph - N/A   Partly Cloudy
9:53 PM 59.0 °F 48.9 °F 69% 30.18 in 10.0 mi South 5.8 mph - N/A   Partly Cloudy
10:53 PM 57.0 °F 52.0 °F 83% 30.16 in 10.0 mi South 5.8 mph - N/A   Mostly Cloudy
11:11 PM 57.2 °F 53.6 °F 88% 30.15 in 10.0 mi South 4.6 mph - N/A   Mostly Cloudy
11:53 PM 57.9 °F 54.0 °F 87% 30.13 in 10.0 mi South 4.6 mph - N/A   Overcast